Location: Huntsville
(41.2590°N, 111.7678°W)
Time: 17:31:35
(UTC+00:00)

Courier 1B Rocket - Pass Details

Date: 22 June 2021
Orbit: 920 x 1202 km, 28.2° (Epoch: 02 August)

Event Time Altitude Azimuth Distance (km) Brightness Sun altitude
Rises 03:20:21 0° 247° (WSW) 3,809 8.6 -3.4°
Reaches altitude 10° 03:23:35 10° 236° (SW) 2,805 7.7 -3.9°
Maximum altitude 03:29:01 26° 182° (S) 1,823 6.2 -4.7°
Drops below altitude 10° 03:34:12 10° 128° (SE) 2,664 6.6 -5.5°
Enters shadow 03:35:13 - 123° (ESE) 2,963 6.8 -5.6°
Sets 03:37:11 0° 116° (ESE) 3,581 - -5.9°
